This is the latest recevied weather packets stored in our database for station/object KI4BIY. If no packets are shown the sender has not sent any weather packets the latest 10 day(s).
| Time | Temp. | Humidity | Pressure | Rain* | Wind** | Luminosity | Snow |
|---|---|---|---|---|---|---|---|
| 1778106700 | 12.22° C | 99% | 1012.8 hPa | 0 mm | - | 51 W/m² | - |
| 1778106398 | 12.22° C | 99% | 1012.9 hPa | 0 mm | - | 51 W/m² | - |
| 1778106093 | 12.22° C | 99% | 1012.4 hPa | 0 mm | - | 65 W/m² | - |
| 1778105792 | 12.22° C | 99% | 1012.9 hPa | 0 mm | - | 53 W/m² | - |
| 1778105490 | 12.22° C | 99% | 1012.4 hPa | 0 mm | - | 70 W/m² | - |
| 1778105186 | 12.22° C | 99% | 1012.3 hPa | 0 mm | - | 42 W/m² | - |
| 1778104881 | 12.22° C | 99% | 1012.6 hPa | 0 mm | - | 46 W/m² | - |
| 1778104578 | 12.22° C | 99% | 1012.8 hPa | 0 mm | - | 31 W/m² | - |
| 1778104273 | 12.22° C | 99% | 1012.9 hPa | 0 mm | - | 67 W/m² | - |
| 1778103971 | 12.22° C | 99% | 1012.7 hPa | 0 mm | - | 77 W/m² | - |
| 1778103668 | 12.22° C | 99% | 1012.7 hPa | 0 mm | - | 62 W/m² | - |
| 1778103366 | 12.22° C | 99% | 1012.7 hPa | 1.78 mm | - | 33 W/m² | - |
| 1778103063 | 12.22° C | 99% | 1013.1 hPa | 1.78 mm | - | 47 W/m² | - |
| 1778102760 | 12.22° C | 99% | 1013.9 hPa | 0 mm | - | 72 W/m² | - |
| 1778102454 | 12.22° C | 99% | 1013.6 hPa | 1.27 mm | - | 69 W/m² | - |
| 1778102151 | 12.22° C | 99% | 1014.2 hPa | 1.27 mm | - | 39 W/m² | - |
| 1778101848 | 12.22° C | 99% | 1014.4 hPa | 1.78 mm | - | 36 W/m² | - |
| 1778101544 | 12.22° C | 99% | 1014.4 hPa | 3.05 mm | - | 58 W/m² | - |
| 1778101241 | 12.22° C | 99% | 1014 hPa | 3.05 mm | - | 46 W/m² | - |
| 1778100938 | 12.22° C | 98% | 1013.8 hPa | 1.78 mm | - | 42 W/m² | - |
| 1778100633 | 12.22° C | 98% | 1013.6 hPa | 0 mm | - | 32 W/m² | - |
| 1778100331 | 12.22° C | 98% | 1013.8 hPa | 0 mm | - | 30 W/m² | - |
| 1778100028 | 12.78° C | 98% | 1013.3 hPa | 0 mm | - | 36 W/m² | - |
| 1778099727 | 12.78° C | 98% | 1013.4 hPa | 0 mm | - | 54 W/m² | - |
| 1778099423 | 12.78° C | 98% | 1013.9 hPa | 0 mm | - | 48 W/m² | - |
* Rain latest hour (hover to see other rain measurements)
** Current wind speed in m/s (hover to see current wind gust speed)